Regional Weather Roundup
Issued by NWS

Home | Current Version | Previous Version | Graphics & Text | Print | Product List | Glossary On
Versions: 1 2 3 4 5 6 7 8 9 10 11 12 13 14 15 16 17 18 19 20 21 22 23 24 25 26 27 28 29 30 31 32 33 34 35 36 37 38 39 40 41 42 43 44 45 46 47 48 49 50
397
ASUS45 KPSR 280610
RWRAZ

ARIZONA HOURLY REGIONAL WEATHER ROUNDUP
NATIONAL WEATHER SERVICE PHOENIX AZ
1100 PM MST FRI MAY 27 2016

NOTE: FAIR INDICATES FEW OR NO CLOUDS BELOW 12,000 FEET WITH NO
SIGNIFICANT WEATHER AND/OR OBSTRUCTIONS TO VISIBILITY.

AZZ001>003-036-280700-
NORTHWEST ARIZONA

CITY           SKY/WX    TMP DP  RH WIND       PRES   REMARKS
KINGMAN        CLEAR     69  29  22 SW14      29.89S
6HR MIN TEMP:  68; 6HR MAX TEMP:  83;

$$

AZZ004>008-015-016-018-280700-
NORTH CENTRAL ARIZONA

CITY           SKY/WX    TMP DP  RH WIND       PRES   REMARKS
GRAND CANYON   CLEAR     39  24  55 CALM      30.07S
6HR MIN TEMP:  39; 6HR MAX TEMP:  68;

WILLIAMS       MOCLDY    46  25  42 SW5       30.15S
PRESCOTT       CLEAR     60  27  28 S10       30.00R
6HR MIN TEMP:  58; 6HR MAX TEMP:  76;

FLAGSTAFF      PTCLDY    43  28  55 CALM      30.10R
6HR MIN TEMP:  43; 6HR MAX TEMP:  65;

PAYSON         CLEAR     59  27  29 CALM      30.04R
PAGE           PTCLDY    66  32  28 W5        29.92R
6HR MIN TEMP:  66; 6HR MAX TEMP:  79;

$$

AZZ009>014-017-280700-
NORTHEAST ARIZONA

CITY           SKY/WX    TMP DP  RH WIND       PRES   REMARKS
WINSLOW        MOCLDY    60  28  29 SW10      29.99R
6HR MIN TEMP:  56; 6HR MAX TEMP:  77; 6HR PCP: TRACE;

SAINT JOHNS    PTCLDY    59  26  28 W10       30.02R
6HR MIN TEMP:  52; 6HR MAX TEMP:  72;

WINDOW ROCK    CLEAR     51  23  33 CALM      30.06S
6HR MIN TEMP:  45; 6HR MAX TEMP:  69;

SHOW LOW       CLEAR     50  23  34 S7        30.09R
$$

AZZ023-280700-
GREATER PHOENIX AREA

CITY           SKY/WX    TMP DP  RH WIND       PRES   REMARKS
PHOENIX        CLEAR     81  33  17 CALM      29.76S
6HR MIN TEMP:  81; 6HR MAX TEMP:  92;

BUCKEYE        CLEAR     73  28  19 NW8       29.79R
LUKE AFB       CLEAR     79  34  19 SW3       29.76S
6HR MIN TEMP:  79; 6HR MAX TEMP:  92;

DEER VALLEY    CLEAR     77  30  17 N3        29.79S
6HR MIN TEMP:  76; 6HR MAX TEMP:  90;

SCOTTSDALE     CLEAR     79  33  19 N5        29.81R
6HR MIN TEMP:  79; 6HR MAX TEMP:  90;

MESA-GATEWAY   CLEAR     73  30  20 N6        29.80S
$$

AZZ027-028-280700-
SOUTHWEST MARICOPA COUNTY AND PINAL COUNTY

CITY           SKY/WX    TMP DP  RH WIND       PRES   REMARKS
CASA GRANDE    CLEAR     72  27  18 CALM      29.80F
6HR MIN TEMP:  72; 6HR MAX TEMP:  90;

GILA BEND      FAIR      78  30  17 S8        29.77S
6HR MIN TEMP:  78; 6HR MAX TEMP:  92;

$$

AZZ503-504-507>509-280700-
SOUTHEAST ARIZONA

CITY           SKY/WX    TMP DP  RH WIND       PRES   REMARKS
TUCSON         CLEAR     71  24  17 SE3       29.88S
6HR MIN TEMP:  71; 6HR MAX TEMP:  88;

DAVIS-MONTHAN  CLEAR     69  25  18 SW2       29.87S
6HR MIN TEMP:  69; 6HR MAX TEMP:  85;

NOGALES        CLEAR     61  21  21 S6        29.95R
6HR MIN TEMP:  61; 6HR MAX TEMP:  84;

SIERRA VISTA   CLEAR     65  19  17 W6        30.00S
6HR MIN TEMP:  62; 6HR MAX TEMP:  80;

DOUGLAS        CLEAR     61  19  19 N8        29.96S
6HR MIN TEMP:  61; 6HR MAX TEMP:  84;

SAFFORD        CLEAR     72  22  15 NW12      29.87S
6HR MIN TEMP:  69; 6HR MAX TEMP:  86;

$$

AZZ020-021-025-026-031-280700-
SOUTHWEST ARIZONA

CITY           SKY/WX    TMP DP  RH WIND       PRES   REMARKS
YUMA           CLEAR     76  42  29 S3        29.75S
6HR MIN TEMP:  76; 6HR MAX TEMP:  93;

$$

CAZ031-033-041-043-047-048-061-280700-
SOUTHERN CALIFORNIA

CITY           SKY/WX    TMP DP  RH WIND       PRES   REMARKS
DOWNTOWN L.A.  CLEAR     60  54  80 CALM      29.89S
6HR MIN TEMP:  60; 6HR MAX TEMP:  70;

L.A. AIRPORT   MOCLDY    60  55  83 VRB5      29.89F
6HR MIN TEMP:  59; 6HR MAX TEMP:  66;

SAN DIEGO      CLOUDY    63  55  75 SW5       29.91S
6HR MIN TEMP:  63; 6HR MAX TEMP:  66;

BURBANK        PTCLDY    58  53  84 S5        29.88S
6HR MIN TEMP:  58; 6HR MAX TEMP:  73;

ONTARIO        CLEAR     61  54  77 VRB7      29.89F
6HR MIN TEMP:  60; 6HR MAX TEMP:  79;

RIVERSIDE      CLEAR     61  54  77 W5        29.90R
6HR MIN TEMP:  61; 6HR MAX TEMP:  79;

PALM SPRINGS   CLEAR     79  49  34 NW8       29.77R
6HR MIN TEMP:  79; 6HR MAX TEMP:  95;

EL CENTRO NAS  CLEAR     79  41  25 SW5       29.75S
6HR MIN TEMP:  77; 6HR MAX TEMP:  95;

IMPERIAL       CLEAR     77  42  28 SW7       29.73S
6HR MIN TEMP:  77; 6HR MAX TEMP:  96;

BLYTHE         CLEAR     83  34  17 S9        29.75R
6HR MIN TEMP:  83; 6HR MAX TEMP:  94;

NEEDLES        CLEAR     84  32  15 W13       29.74S
6HR MIN TEMP:  84; 6HR MAX TEMP:  96;

$$

NVZ020-UTZ003-280700-
SOUTHERN NEVADA-UTAH

CITY           SKY/WX    TMP DP  RH WIND       PRES   REMARKS
LAS VEGAS      CLEAR     81  25  12 SW5       29.75R
6HR MIN TEMP:  81; 6HR MAX TEMP:  90;

SALT LAKE CITY CLOUDY    59  45  59 CALM      29.95F
6HR MIN TEMP:  59; 6HR MAX TEMP:  73; 6HR PCP:  0.01;

$$

NMZ009-TXZ055-280700-
NEW MEXICO-WEST TEXAS

CITY           SKY/WX    TMP DP  RH WIND       PRES   REMARKS
ALBUQUERQUE    CLOUDY    65  23  20 NW7       29.98S
6HR MIN TEMP:  65; 6HR MAX TEMP:  73; 6HR PCP: TRACE;

EL PASO        CLEAR     74  16  11 NW6       29.92S
6HR MIN TEMP:  74; 6HR MAX TEMP:  83;

$$


........................KEY........................
SKY/WX - SKY CONDITION/WEATHER
TMP    - TEMPERATURE IN FAHRENHEIT
DP     - DEW POINT IN FAHRENHEIT
RH     - RELATIVE HUMIDITY IN PERCENT
WIND   - DIRECTION AND SPEED IN MILES PER HOUR (MPH)
VRB    - VARIABLE WIND DIRECTION
PRES   - MEAN SEA LEVEL PRESSURE IN INCHES OF MERCURY
         F - FALLING PRESSURE   R - RISING PRESSURE
         S - STEADY PRESSURE
VSB    - VISIBILITY IN MILES
HX     - HEAT INDEX IN FAHRENHEIT
WCI    - WIND CHILL INDEX IN FAHRENHEIT
TC     - TEMPERATURE IN CELSIUS WHICH IS ALSO KNOWN AS
         TEMPERATURE IN CENTIGRADE
AFB    - AIR FORCE BASE
         LUKE AFB IS LUKE AIR FORCE BASE
         DAVIS-MONTHAN IS DAVIS-MONTHAN AIR FORCE BASE
NAS    - NAVAL AIR STATION
         EL CENTRO NAS IS EL CENTRO NAVAL AIR STATION
N/A    - NOT AVAILABLE





USA.gov is the U.S. government's official web portal to all federal, state and local government web resources and services.